Retour au catalogue

GONETS M 12

M22

ActifCommunicationsPO
NORAD 40553·PAYLOAD·🇷🇺 Russia

Lancé Mar 31, 2015 depuis Plesetsk Cosmodrome

Loading…

Prochains Passages (prochaines 24 heures)

TLE

FraisSource: Space-Track

Époque: Sep 14, 2026, 13:47 UTC

1 40553U 15020B   26257.57472122  .00000003  00000-0 -53921-4 0  9995
2 40553  82.4952 336.4499 0016037 149.2906 210.9115 12.42893434519830

Suivez GONETS M 12 en temps réel avec AllMySat

Download on the App Store